TimeEST,TemperatureF,Dew PointF,Humidity,Sea Level PressureIn,VisibilityMPH,Wind Direction,Wind SpeedMPH,Gust SpeedMPH,PrecipitationIn,Events,Conditions,WindDirDegrees,DateUTC
12:53 AM,36.0,32.0,86,30.25,10.0,NE,9.2,-,N/A,,Overcast,40,2012-11-30 05:53:00
1:00 AM,35.6,32.0,87,30.23,10.0,NE,11.5,-,N/A,,Overcast,50,2012-11-30 06:00:00
1:53 AM,36.0,30.9,82,30.25,10.0,ENE,11.5,-,N/A,,Overcast,60,2012-11-30 06:53:00
2:53 AM,36.0,30.9,82,30.26,10.0,NE,15.0,-,N/A,,Overcast,50,2012-11-30 07:53:00
3:53 AM,35.1,30.0,82,30.26,10.0,NE,12.7,23.0,N/A,,Overcast,50,2012-11-30 08:53:00
4:53 AM,35.1,30.0,82,30.25,10.0,ENE,16.1,-,N/A,,Overcast,70,2012-11-30 09:53:00
5:53 AM,35.1,28.9,78,30.25,10.0,ENE,16.1,21.9,N/A,,Overcast,60,2012-11-30 10:53:00
6:53 AM,34.0,28.9,82,30.26,10.0,NE,15.0,27.6,N/A,,Overcast,50,2012-11-30 11:53:00
7:53 AM,34.0,28.9,82,30.27,10.0,ENE,16.1,-,N/A,,Overcast,60,2012-11-30 12:53:00
8:53 AM,34.0,28.9,82,30.27,10.0,ENE,12.7,-,N/A,,Overcast,60,2012-11-30 13:53:00
9:53 AM,35.1,28.9,78,30.27,10.0,ENE,12.7,-,N/A,,Overcast,60,2012-11-30 14:53:00
10:35 AM,35.6,30.2,81,30.25,4.0,NE,11.5,-,0.00,,Haze,50,2012-11-30 15:35:00
10:53 AM,35.1,30.9,85,30.28,2.5,NE,12.7,-,0.00,Snow,Light Snow,50,2012-11-30 15:53:00
11:53 AM,36.0,32.0,86,30.25,2.5,NE,11.5,-,0.00,Rain,Light Rain,50,2012-11-30 16:53:00
12:53 PM,37.0,34.0,89,30.23,2.5,NE,10.4,-,0.00,,Overcast,40,2012-11-30 17:53:00
1:01 PM,37.4,33.8,87,30.21,2.5,NNE,10.4,-,N/A,,Overcast,30,2012-11-30 18:01:00
1:53 PM,37.9,34.0,86,30.22,2.0,NE,9.2,-,N/A,,Overcast,50,2012-11-30 18:53:00
2:53 PM,37.9,35.1,89,30.23,2.0,ENE,9.2,-,N/A,,Overcast,70,2012-11-30 19:53:00
3:53 PM,37.0,33.1,86,30.25,2.0,East,10.4,-,N/A,,Overcast,80,2012-11-30 20:53:00
4:53 PM,37.0,33.1,86,30.26,2.0,ENE,11.5,-,N/A,,Overcast,70,2012-11-30 21:53:00
5:53 PM,37.0,33.1,86,30.28,2.0,ENE,12.7,-,N/A,,Overcast,70,2012-11-30 22:53:00
6:53 PM,37.0,33.1,86,30.30,2.0,East,10.4,-,N/A,,Overcast,80,2012-11-30 23:53:00
7:53 PM,37.0,33.1,86,30.30,2.0,East,8.1,-,N/A,,Overcast,80,2012-12-01 00:53:00
8:53 PM,36.0,33.1,89,30.30,6.0,ENE,8.1,-,N/A,,Overcast,70,2012-12-01 01:53:00
9:53 PM,36.0,32.0,86,30.30,6.0,East,8.1,-,N/A,,Overcast,80,2012-12-01 02:53:00
10:11 PM,35.6,32.0,87,30.25,6.0,East,10.4,-,N/A,,Overcast,90,2012-12-01 03:11:00
10:53 PM,35.1,32.0,89,30.28,6.0,ENE,6.9,-,N/A,,Overcast,70,2012-12-01 03:53:00
11:53 PM,35.1,30.9,85,30.30,7.0,East,8.1,-,N/A,,Overcast,80,2012-12-01 04:53:00